TimeCST,TemperatureF,Dew PointF,Humidity,Sea Level PressureIn,VisibilityMPH,Wind Direction,Wind SpeedMPH,Gust SpeedMPH,PrecipitationIn,Events,Conditions,WindDirDegrees,DateUTC
12:15 AM,51.8,33.8,50,30.01,10.0,South,25.3,29.9,N/A,,Clear,180,2012-12-14 06:15:00
12:35 AM,51.8,33.8,50,30.01,10.0,South,19.6,28.8,N/A,,Clear,180,2012-12-14 06:35:00
12:55 AM,51.8,33.8,50,30.01,10.0,South,18.4,26.5,N/A,,Clear,190,2012-12-14 06:55:00
1:15 AM,50.0,33.8,54,30.02,10.0,South,13.8,23.0,N/A,,Clear,190,2012-12-14 07:15:00
1:35 AM,48.2,33.8,58,30.00,10.0,SSW,12.7,-,N/A,,Clear,200,2012-12-14 07:35:00
1:55 AM,48.2,35.6,62,30.01,10.0,SSW,13.8,20.7,N/A,,Clear,200,2012-12-14 07:55:00
2:15 AM,48.2,35.6,62,30.01,10.0,SSW,13.8,21.9,N/A,,Clear,200,2012-12-14 08:15:00
2:35 AM,48.2,35.6,62,30.00,10.0,SSW,16.1,20.7,N/A,,Clear,200,2012-12-14 08:35:00
2:55 AM,46.4,35.6,66,30.00,10.0,SSW,13.8,-,N/A,,Clear,210,2012-12-14 08:55:00
3:15 AM,46.4,35.6,66,30.00,10.0,SSW,12.7,-,N/A,,Clear,200,2012-12-14 09:15:00
3:35 AM,46.4,37.4,71,30.00,10.0,SSW,13.8,-,N/A,,Clear,200,2012-12-14 09:35:00
3:55 AM,48.2,39.2,71,29.99,10.0,SSW,12.7,19.6,N/A,,Clear,200,2012-12-14 09:55:00
4:35 AM,50.0,41.0,71,29.99,10.0,SSW,15.0,-,N/A,,Clear,200,2012-12-14 10:35:00
5:15 AM,50.0,42.8,76,29.97,10.0,SSW,17.3,21.9,N/A,,Clear,200,2012-12-14 11:15:00
5:35 AM,50.0,42.8,76,29.95,10.0,South,16.1,-,N/A,,Clear,190,2012-12-14 11:35:00
5:55 AM,50.0,42.8,76,29.95,10.0,SSW,17.3,-,N/A,,Clear,200,2012-12-14 11:55:00
6:15 AM,50.0,42.8,76,29.94,10.0,South,18.4,-,N/A,,Clear,190,2012-12-14 12:15:00
6:35 AM,50.0,42.8,76,29.94,10.0,SSW,16.1,-,N/A,,Clear,200,2012-12-14 12:35:00
6:55 AM,50.0,42.8,76,29.95,10.0,SSW,19.6,-,N/A,,Clear,200,2012-12-14 12:55:00
7:15 AM,50.0,41.0,71,29.95,10.0,SSW,18.4,24.2,N/A,,Clear,200,2012-12-14 13:15:00
7:35 AM,50.0,41.0,71,29.95,10.0,SSW,16.1,-,N/A,,Clear,200,2012-12-14 13:35:00
7:55 AM,48.2,41.0,76,29.94,10.0,South,16.1,-,N/A,,Clear,190,2012-12-14 13:55:00
8:15 AM,50.0,41.0,71,29.94,10.0,South,15.0,-,N/A,,Clear,190,2012-12-14 14:15:00
8:35 AM,50.0,42.8,76,29.94,10.0,South,16.1,-,N/A,,Clear,190,2012-12-14 14:35:00
8:55 AM,50.0,42.8,76,29.94,10.0,South,17.3,24.2,N/A,,Scattered Clouds,190,2012-12-14 14:55:00
9:15 AM,51.8,42.8,71,29.94,10.0,South,17.3,-,N/A,,Scattered Clouds,190,2012-12-14 15:15:00
9:35 AM,51.8,44.6,76,29.94,10.0,South,18.4,21.9,N/A,,Clear,190,2012-12-14 15:35:00
9:55 AM,51.8,44.6,76,29.93,10.0,South,11.5,-,N/A,,Clear,170,2012-12-14 15:55:00
10:15 AM,53.6,44.6,72,29.92,10.0,South,15.0,-,N/A,,Scattered Clouds,170,2012-12-14 16:15:00
10:35 AM,53.6,44.6,72,29.93,10.0,South,15.0,21.9,N/A,,Mostly Cloudy,170,2012-12-14 16:35:00
10:55 AM,53.6,44.6,72,29.91,10.0,SSE,19.6,23.0,N/A,,Overcast,160,2012-12-14 16:55:00
11:15 AM,53.6,44.6,72,29.91,10.0,South,18.4,23.0,N/A,,Overcast,170,2012-12-14 17:15:00
11:35 AM,53.6,44.6,72,29.88,10.0,South,18.4,26.5,N/A,,Overcast,170,2012-12-14 17:35:00
12:15 PM,51.8,44.6,76,29.86,10.0,South,15.0,24.2,N/A,,Overcast,170,2012-12-14 18:15:00
12:35 PM,53.6,44.6,72,29.84,10.0,South,17.3,21.9,N/A,,Overcast,170,2012-12-14 18:35:00
12:55 PM,53.6,44.6,72,29.83,10.0,South,23.0,27.6,N/A,,Overcast,170,2012-12-14 18:55:00
1:15 PM,53.6,44.6,72,29.80,10.0,South,20.7,26.5,N/A,,Overcast,170,2012-12-14 19:15:00
1:55 PM,55.4,42.8,63,29.77,10.0,South,19.6,28.8,N/A,,Overcast,170,2012-12-14 19:55:00
2:15 PM,55.4,44.6,67,29.75,10.0,South,23.0,32.2,N/A,,Overcast,170,2012-12-14 20:15:00
2:35 PM,55.4,44.6,67,29.73,10.0,SSE,20.7,27.6,N/A,,Overcast,160,2012-12-14 20:35:00
2:55 PM,53.6,44.6,72,29.72,10.0,SSE,18.4,25.3,N/A,,Overcast,150,2012-12-14 20:55:00
3:35 PM,55.4,44.6,67,29.71,10.0,South,19.6,26.5,N/A,,Overcast,170,2012-12-14 21:35:00
3:55 PM,53.6,44.6,72,29.71,10.0,South,18.4,25.3,N/A,,Overcast,180,2012-12-14 21:55:00
4:15 PM,53.6,46.4,77,29.69,10.0,SSE,20.7,25.3,N/A,,Overcast,160,2012-12-14 22:15:00
4:35 PM,51.8,46.4,82,29.67,10.0,SSE,17.3,23.0,N/A,,Overcast,150,2012-12-14 22:35:00
5:15 PM,51.8,48.2,88,29.65,7.0,SSE,18.4,24.2,N/A,,Overcast,150,2012-12-14 23:15:00
5:35 PM,51.8,50.0,94,29.64,10.0,SE,15.0,19.6,N/A,,Overcast,140,2012-12-14 23:35:00
5:55 PM,53.6,50.0,88,29.63,10.0,SSE,19.6,25.3,N/A,,Overcast,150,2012-12-14 23:55:00
6:15 PM,53.6,50.0,88,29.61,10.0,SE,18.4,26.5,N/A,,Overcast,140,2012-12-15 00:15:00
6:35 PM,53.6,50.0,88,29.59,10.0,SE,21.9,28.8,N/A,Rain-Thunderstorm,Light Thunderstorms and Rain,140,2012-12-15 00:35:00
6:55 PM,53.6,51.8,94,29.61,5.0,SSE,24.2,31.1,0.04,Rain-Thunderstorm,Thunderstorms and Rain,160,2012-12-15 00:55:00
7:15 PM,53.6,51.8,94,29.64,5.0,SW,31.1,55.2,0.04,Rain,Rain,220,2012-12-15 01:15:00
7:35 PM,51.8,46.4,82,29.58,10.0,West,13.8,28.8,0.08,Rain,Light Rain,260,2012-12-15 01:35:00
8:15 PM,50.0,46.4,87,29.54,10.0,SSE,6.9,-,N/A,,Mostly Cloudy,160,2012-12-15 02:15:00
8:35 PM,50.0,44.6,82,29.57,10.0,South,13.8,20.7,N/A,,Mostly Cloudy,180,2012-12-15 02:35:00
8:55 PM,50.0,42.8,76,29.59,10.0,South,15.0,26.5,N/A,,Scattered Clouds,190,2012-12-15 02:55:00
9:15 PM,50.0,42.8,76,29.59,10.0,SSW,20.7,28.8,N/A,,Clear,200,2012-12-15 03:15:00
9:55 PM,48.2,41.0,76,29.57,10.0,South,21.9,29.9,N/A,,Clear,190,2012-12-15 03:55:00
10:15 PM,48.2,41.0,76,29.55,10.0,South,20.7,31.1,N/A,,Clear,190,2012-12-15 04:15:00
10:35 PM,46.4,41.0,81,29.55,10.0,South,21.9,26.5,N/A,,Clear,190,2012-12-15 04:35:00
10:55 PM,46.4,37.4,71,29.56,10.0,SSW,24.2,31.1,N/A,,Clear,210,2012-12-15 04:55:00
11:15 PM,48.2,37.4,66,29.55,10.0,SW,26.5,32.2,N/A,,Clear,220,2012-12-15 05:15:00
11:35 PM,50.0,35.6,58,29.55,10.0,SW,25.3,31.1,N/A,,Clear,220,2012-12-15 05:35:00
11:55 PM,50.0,35.6,58,29.55,10.0,SW,31.1,35.7,N/A,,Clear,230,2012-12-15 05:55:00